This demonstration page uses our WeatherBlox Daily Observations layout. Learn more.

Left ArrowRight Arrow

38.88101, -77.10428

Hourly Observations for June 28, 2021

Temp ( °F °C ) Dew Point ( °F °C ) Humidity (%) Winds ( mph kmh ) Pressure ( in mb ) Visibility ( mi km ) Precip ( " mm )
12:52 am 00:52 Mostly Cloudy 79 26.1 72 22.2 79 79 S 10 17 30.19 1022 10 16 N/A
1:52 am 01:52 Mostly Clear 78 25.6 71 21.7 79 79 S 12 19 30.19 1022 10 16 N/A
2:52 am 02:52 Mostly Clear 77 25 71 21.7 82 82 S 8 13 30.20 1023 10 16 N/A
3:52 am 03:52 Mostly Clear 77 25 70 21.1 79 79 S 10 17 30.21 1023 10 16 N/A
4:52 am 04:52 Mostly Clear 76 24.4 71 21.7 85 85 S 12 19 30.22 1023 10 16 N/A
5:52 am 05:52 Mostly Sunny 76 24.4 70 21.1 82 82 S 9 15 30.24 1024 10 16 N/A
6:52 am 06:52 Mostly Sunny 77 25 70 21.1 79 79 S 7 11 30.24 1024 10 16 N/A
7:52 am 07:52 Mostly Sunny 79 26.1 71 21.7 77 77 S 8 13 30.25 1025 9 14 N/A
8:52 am 08:52 Mostly Sunny 81 27.2 72 22.2 74 74 S 9 15 30.26 1025 10 16 N/A
9:52 am 09:52 Sunny 82 27.8 72 22.2 72 72 S 12 19 30.25 1025 10 16 N/A
10:52 am 10:52 Sunny 85 29.4 72 22.2 65 65 S 10 17 30.25 1024 10 16 N/A
11:52 am 11:52 Mostly Sunny 87 30.6 72 22.2 61 61 S 13 20 30.25 1024 10 16 N/A
12:52 pm 12:52 Partly Cloudy 88 31.1 73 22.8 61 61 SSE 12 19 30.23 1024 10 16 N/A
1:52 pm 13:52 Partly Cloudy 89 31.7 74 23.3 61 61 S 10 17 30.23 1024 10 16 N/A
2:52 pm 14:52 Partly Cloudy 90 32.2 74 23.3 59 59 S 12 19 30.22 1023 10 16 N/A
3:52 pm 15:52 Mostly Sunny 90 32.2 73 22.8 58 58 S 14 22 30.22 1023 10 16 N/A
4:52 pm 16:52 Mostly Sunny 90 32.2 72 22.2 56 56 S 13 20 30.21 1023 10 16 N/A
5:52 pm 17:52 Mostly Sunny 90 32.2 70 21.1 52 52 S 13 20 30.19 1022 10 16 N/A
6:52 pm 18:52 Mostly Sunny 89 31.7 71 21.7 55 55 S 14 22 30.19 1023 10 16 N/A
7:52 pm 19:52 Mostly Sunny 87 30.6 72 22.2 61 61 S 12 19 30.21 1023 10 16 N/A
8:52 pm 20:52 Mostly Clear 85 29.4 72 22.2 65 65 S 10 17 30.21 1023 10 16 N/A
9:52 pm 21:52 Mostly Clear 83 28.3 71 21.7 67 67 SSE 12 19 30.23 1024 10 16 N/A
10:52 pm 22:52 Partly Cloudy 81 27.2 72 22.2 74 74 S 9 15 30.24 1024 10 16 N/A
11:52 pm 23:52 Partly Cloudy 80 26.7 72 22.2 76 76 SSW 12 19 30.24 1024 10 16 N/A

Powered by AerisWeather